Flag for Germany Weather past 2 weeks in Göppingen, Baden-Württemberg, Germany

Now
64 °F

Passing clouds.


Feels Like: 64 °F
Forecast: 52 / 74 °F
Wind: 6 mph from East

Location: Stoetten

Current Time: Sep 17, 2014 at 6:34:09 PM

Latest Report: Sep 17, 2014 at 6:00 PM


Visibility: 34 mi

Pressure: 29.87 "Hg

Humidity: 72%

Dew point: 54 °F

Location of GöppingenLocation

Historic Weather in Göppingen — Graph

°F

Göppingen temperature yesterday

Maximum temperature yesterday: 64 °F (at 5:00 PM)
Minimum temperature yesterday: 51 °F (at 8:00 AM)
Average temperature yesterday: 56 °F

Past Weeks' High & Low Weather Summary

 TemperatureHumidityPressure
High71 °F (Sep 7, 3:00 PM)100% (Sep 3, 9:00 AM)30.18 "Hg (Sep 3, 9:00 AM)
Low47 °F (Sep 11, 7:00 AM)51% (Sep 7, 3:00 PM)29.86 "Hg (Sep 6, 5:00 PM)
Average57 °F88%30.01 "Hg
* Reported Sep 2 5:00 PM — Sep 17 5:00 PM, Göppingen, Weather by CustomWeather, © 2014

Note: Actual official high and low records may vary slightly from our data, if they occured in-between our weather recording intervals... More about our weather records

Advertising

Göppingen weather history for previous 24 hours

 ConditionsComfort  
Time TempWeatherWind HumidityBarometerVisibility
5:00 PM
Sep 17
65 °FPassing clouds.5 mph71%29.86 "Hg31 mi
4:00 PM65 °FPassing clouds.6 mph74%29.86 "Hg25 mi
3:00 PM64 °FPassing clouds.5 mph80%29.88 "Hg16 mi
2:00 PM62 °FPassing clouds.5 mph85%29.90 "Hg10 mi
1:00 PM59 °FPassing clouds.6 mph89%29.92 "Hg19 mi
12:00 PM57 °FFog.5 mph95%29.93 "Hg6 mi
11:00 AM55 °FFog.5 mph100%29.94 "Hg0 mi
10:00 AM54 °FFog.5 mph100%29.95 "Hg0 mi
9:00 AM54 °FFog.5 mph100%29.94 "Hg0 mi
8:00 AM52 °FFog.5 mph100%29.96 "Hg0 mi
7:00 AM53 °FFog.5 mph100%29.96 "Hg0 mi
6:00 AM53 °FFog.5 mph100%29.95 "Hg0 mi
5:00 AM52 °FLow clouds.5 mph100%29.96 "Hg0 mi
4:00 AM52 °FLow clouds.5 mph100%29.96 "Hg0 mi
3:00 AM54 °FPassing clouds.5 mph99%29.96 "Hg0 mi
2:00 AM56 °FFog.3 mph95%29.96 "Hg2 mi
1:00 AM55 °FFog.3 mph97%29.97 "Hg1 mi
12:00 AM55 °FFog.3 mph97%29.98 "Hg2 mi
11:00 PM
Sep 16
55 °FFog.5 mph96%29.98 "Hg2 mi
10:00 PM55 °FFog.5 mph96%29.99 "Hg2 mi
9:00 PM56 °FFog.5 mph95%29.99 "Hg4 mi
8:00 PM58 °FPassing clouds.5 mph92%29.97 "Hg7 mi
7:00 PM61 °FPassing clouds.3 mph83%29.96 "Hg17 mi
6:00 PM63 °FPassing clouds.3 mph77%29.94 "Hg25 mi
Weather by CustomWeather, © 2014

See weather overviewHow to use our weather pages